Weather History for Abilene Dyess, TX

Change the Weather History Date:

Monday, January 21, 2013

  Actual Average Record
Temperature  
Mean Temperature 38 °F -  
Max Temperature 47 °F 57 °F 77 °F (1999)
Min Temperature 28 °F 35 °F 14 °F (2011)
Degree Days  
Heating Degree Days 28    
Moisture  
Dew Point 25 °F    
Average Humidity 62    
Maximum Humidity 84    
Minimum Humidity 38    
Precipitation  
Precipitation 0.00 in - - ()
Sea Level Pressure  
Sea Level Pressure 30.26 in    
Wind  
Wind Speed 6 mph (North)    
Max Wind Speed 14 mph    
Max Gust Speed 17 mph    
Visibility 10 miles    
Events      
Averages and records for this station are not official NWS values.
T = Trace of Precipitation, MM = Missing Value Source: NWS Daily Summary

Daily Weather History Graph

Daily Weather History Graph

Search for Another Location

Airport:

Trip Planner

Search our weather history database for the weather conditions in past years. The results will help you decide how hot, cold, wet, or windy it might be!

Date:

Astronomy

Jan. 21, 2013 Rise Set
Actual Time 7:39 AM CST 6:02 PM CST
Civil Twilight 7:13 AM CST 6:28 PM CST
Nautical Twilight 6:43 AM CST 6:58 PM CST
Astronomical Twilight 6:13 AM CST 7:28 PM CST
Moon 1:45 PM CST (1/21) 3:08 AM CST (1/21)
Length of Visible Light 11h 15m
Length of Day
10h 23m
Waxing Gibbous, 75% of the Moon is Illuminated
Jan 21
Waxing Gibbous
Jan 26
Full
Feb 3
Last Quarter
Feb 10
New
Feb 17
First Quarter

Hourly Weather History & Observations

Time (CST) Temp. Windchill Dew Point Humidity Pressure Visibility Wind Dir Wind Speed Gust Speed Precip Events Conditions
12:55 AM 31.8 °F - 26.1 °F 79% 30.13 in 10.0 mi Calm Calm - N/A   Clear
1:55 AM 34.2 °F - 28.0 °F 78% 30.14 in 10.0 mi Calm Calm - N/A   Clear
2:55 AM 28.9 °F 21.1 °F 24.1 °F 82% 30.16 in 10.0 mi South 8.1 mph - N/A   Clear
3:55 AM 33.8 °F 29.6 °F 27.0 °F 76% 30.18 in 10.0 mi NW 4.6 mph - N/A   Clear
4:55 AM 38.5 °F 31.6 °F 30.7 °F 74% 30.18 in 10.0 mi North 10.4 mph - N/A   Clear
5:55 AM 35.8 °F 28.3 °F 31.1 °F 83% 30.22 in 10.0 mi North 10.4 mph - N/A   Clear
6:55 AM 33.8 °F 26.4 °F 29.5 °F 84% 30.27 in 10.0 mi NNW 9.2 mph - N/A   Clear
7:55 AM 32.2 °F 25.0 °F 25.9 °F 78% 30.30 in 10.0 mi NNW 8.1 mph - N/A   Clear
8:55 AM 33.8 °F 24.8 °F 25.7 °F 72% 30.33 in 10.0 mi NNW 12.7 mph - N/A   Clear
9:55 AM 34.9 °F 25.7 °F 21.7 °F 59% 30.35 in 10.0 mi North 13.8 mph - N/A   Clear
10:55 AM 36.9 °F 28.7 °F 20.1 °F 51% 30.36 in 10.0 mi North 12.7 mph - N/A   Clear
11:55 AM 39.6 °F 32.1 °F 19.9 °F 45% 30.35 in 10.0 mi North 12.7 mph 17.3 mph N/A   Clear
12:55 PM 42.3 °F 36.3 °F 21.0 °F 43% 30.32 in 10.0 mi North 10.4 mph - N/A   Clear
1:55 PM 44.1 °F 39.5 °F 21.4 °F 41% 30.28 in 10.0 mi NNE 8.1 mph - N/A   Clear
2:55 PM 46.4 °F 42.4 °F 22.6 °F 39% 30.27 in 10.0 mi North 8.1 mph - N/A   Clear
3:55 PM 47.5 °F - 23.2 °F 38% 30.25 in 10.0 mi North 8.1 mph - N/A   Clear
4:55 PM 47.8 °F - 23.7 °F 39% 30.25 in 10.0 mi NNW 5.8 mph - N/A   Clear
5:55 PM 45.3 °F - 24.1 °F 43% 30.24 in 10.0 mi Calm Calm - N/A   Clear
6:55 PM 39.9 °F 35.8 °F 24.1 °F 53% 30.25 in 10.0 mi NNW 5.8 mph - N/A   Clear
7:55 PM 37.6 °F 34.0 °F 24.3 °F 59% 30.25 in 10.0 mi North 4.6 mph - N/A   Clear
8:55 PM 33.4 °F - 23.4 °F 67% 30.26 in 10.0 mi Calm Calm - N/A   Clear
9:55 PM 33.4 °F - 23.5 °F 67% 30.26 in 10.0 mi Calm Calm - N/A   Clear
10:55 PM 31.1 °F - 22.6 °F 71% 30.27 in 10.0 mi Calm Calm - N/A   Clear
11:55 PM 37.2 °F 34.7 °F 24.6 °F 60% 30.27 in 10.0 mi NW 3.5 mph - N/A   Overcast